Time,TemperatureF,DewpointF,PressureIn,WindDirection,WindDirectionDegrees,WindSpeedMPH,WindSpeedGustMPH,Humidity,HourlyPrecipIn,Conditions,Clouds,dailyrainin,SoftwareType,DateUTC
2013-03-06 00:00:00,23.9,-1.0,29.06,NW,325,12.8,12.8,33,0.00,,,0.00,VWS V14.01,2013-03-06 06:00:00,
2013-03-06 00:05:00,23.9,-1.0,29.06,NW,308,8.3,8.7,33,0.00,,,0.00,VWS V14.01,2013-03-06 06:05:00,
2013-03-06 00:10:00,23.7,-1.2,29.06,NNW,342,8.7,13.2,33,0.00,,,0.00,VWS V14.01,2013-03-06 06:10:00,
2013-03-06 00:15:00,23.7,-1.2,29.06,NW,318,8.7,8.7,33,0.00,,,0.00,VWS V14.01,2013-03-06 06:15:00,
2013-03-06 00:20:00,23.5,-1.3,29.06,NNW,330,7.6,10.5,33,0.00,,,0.00,VWS V14.01,2013-03-06 06:20:00,
2013-03-06 00:25:00,23.5,-1.3,29.09,NNW,332,11.0,11.0,33,0.00,,,0.00,VWS V14.01,2013-03-06 06:25:00,
2013-03-06 00:30:00,23.4,-1.5,29.09,NW,312,8.7,11.0,33,0.00,,,0.00,VWS V14.01,2013-03-06 06:30:00,
2013-03-06 00:35:00,23.2,-1.6,29.09,NNW,337,8.3,8.7,33,0.00,,,0.00,VWS V14.01,2013-03-06 06:35:00,
2013-03-06 00:40:00,23.0,-1.8,29.09,NW,319,15.4,15.4,33,0.00,,,0.00,VWS V14.01,2013-03-06 06:40:00,
2013-03-06 00:45:00,22.8,-2.0,29.09,NNW,339,8.3,12.3,33,0.00,,,0.00,VWS V14.01,2013-03-06 06:45:00,
2013-03-06 00:50:00,22.8,-2.0,29.09,NNW,336,12.8,13.2,33,0.00,,,0.00,VWS V14.01,2013-03-06 06:50:00,
2013-03-06 00:55:00,22.8,-2.0,29.09,NNW,335,8.3,11.0,33,0.00,,,0.00,VWS V14.01,2013-03-06 06:55:00,
2013-03-06 01:00:00,22.8,-2.0,29.09,NNW,335,12.8,12.8,33,0.00,,,0.00,VWS V14.01,2013-03-06 07:00:00,
2013-03-06 01:05:00,22.8,-2.0,29.09,NW,308,12.8,15.0,33,0.00,,,0.00,VWS V14.01,2013-03-06 07:05:00,
2013-03-06 01:10:00,22.8,-2.0,29.09,NW,321,10.1,12.3,33,0.00,,,0.00,VWS V14.01,2013-03-06 07:10:00,
2013-03-06 01:15:00,22.6,-2.1,29.09,NW,326,10.5,15.0,33,0.00,,,0.00,VWS V14.01,2013-03-06 07:15:00,
2013-03-06 01:20:00,22.6,-2.1,29.09,NW,320,9.2,9.2,33,0.00,,,0.00,VWS V14.01,2013-03-06 07:20:00,
2013-03-06 01:25:00,22.6,-2.1,29.09,North,0,4.0,6.3,33,0.00,,,0.00,VWS V14.01,2013-03-06 07:25:00,
2013-03-06 01:30:00,22.6,-2.1,29.09,NNW,329,8.3,8.3,33,0.00,,,0.00,VWS V14.01,2013-03-06 07:30:00,
2013-03-06 01:35:00,22.8,-2.0,29.09,NW,319,11.0,11.0,33,0.00,,,0.00,VWS V14.01,2013-03-06 07:35:00,
2013-03-06 01:40:00,22.6,-1.5,29.09,NNW,339,8.7,12.8,34,0.00,,,0.00,VWS V14.01,2013-03-06 07:40:00,
2013-03-06 01:45:00,22.6,-1.5,29.09,North,353,12.3,12.3,34,0.00,,,0.00,VWS V14.01,2013-03-06 07:45:00,
2013-03-06 01:50:00,22.6,-1.5,29.09,NNW,328,11.4,12.8,34,0.00,,,0.00,VWS V14.01,2013-03-06 07:50:00,
2013-03-06 01:55:00,22.5,-1.6,29.09,NNW,337,13.2,13.2,34,0.00,,,0.00,VWS V14.01,2013-03-06 07:55:00,
2013-03-06 02:00:00,22.5,-1.6,29.09,NW,326,14.5,14.5,34,0.00,,,0.00,VWS V14.01,2013-03-06 08:00:00,
2013-03-06 02:05:00,22.5,-1.6,29.09,NW,316,10.5,12.8,34,0.00,,,0.00,VWS V14.01,2013-03-06 08:05:00,
2013-03-06 02:10:00,22.5,-1.6,29.09,NW,308,10.5,14.1,34,0.00,,,0.00,VWS V14.01,2013-03-06 08:10:00,
2013-03-06 02:15:00,22.5,-1.6,29.09,NNW,338,10.5,10.5,34,0.00,,,0.00,VWS V14.01,2013-03-06 08:15:00,
2013-03-06 02:20:00,22.5,-1.6,29.09,NNW,332,8.7,8.7,34,0.00,,,0.00,VWS V14.01,2013-03-06 08:20:00,
2013-03-06 02:25:00,22.6,-1.5,29.09,North,353,8.7,11.0,34,0.00,,,0.00,VWS V14.01,2013-03-06 08:25:00,
2013-03-06 02:30:00,22.5,-1.6,29.09,WNW,289,7.6,8.1,34,0.00,,,0.00,VWS V14.01,2013-03-06 08:30:00,
2013-03-06 02:35:00,22.5,-1.6,29.09,NNW,332,8.7,11.0,34,0.00,,,0.00,VWS V14.01,2013-03-06 08:35:00,
2013-03-06 02:40:00,22.3,-1.2,29.09,NNW,333,12.8,12.8,35,0.00,,,0.00,VWS V14.01,2013-03-06 08:40:00,
2013-03-06 02:45:00,22.5,-1.0,29.09,NNW,343,8.7,8.7,35,0.00,,,0.00,VWS V14.01,2013-03-06 08:45:00,
2013-03-06 02:50:00,22.5,-1.0,29.09,NW,319,5.4,5.8,35,0.00,,,0.00,VWS V14.01,2013-03-06 08:50:00,
2013-03-06 02:55:00,22.5,-1.0,29.09,NW,306,5.8,8.1,35,0.00,,,0.00,VWS V14.01,2013-03-06 08:55:00,
2013-03-06 03:00:00,22.5,-0.4,29.09,NW,307,8.1,8.1,36,0.00,,,0.00,VWS V14.01,2013-03-06 09:00:00,
2013-03-06 03:05:00,22.5,-0.4,29.09,North,353,8.3,8.3,36,0.00,,,0.00,VWS V14.01,2013-03-06 09:05:00,
2013-03-06 03:10:00,22.3,-1.2,29.09,NNW,339,5.8,5.8,35,0.00,,,0.00,VWS V14.01,2013-03-06 09:10:00,
2013-03-06 03:15:00,22.1,-1.4,29.09,NW,314,10.1,10.1,35,0.00,,,0.00,VWS V14.01,2013-03-06 09:15:00,
2013-03-06 03:20:00,22.1,-1.4,29.09,NW,312,12.3,13.2,35,0.00,,,0.00,VWS V14.01,2013-03-06 09:20:00,
2013-03-06 03:25:00,22.1,-1.4,29.09,NNW,328,5.4,5.4,35,0.00,,,0.00,VWS V14.01,2013-03-06 09:25:00,
2013-03-06 03:30:00,22.1,-0.8,29.09,NNW,330,6.3,8.1,36,0.00,,,0.00,VWS V14.01,2013-03-06 09:30:00,
2013-03-06 03:35:00,22.3,-0.6,29.09,NNW,339,4.0,6.3,36,0.00,,,0.00,VWS V14.01,2013-03-06 09:35:00,
2013-03-06 03:40:00,22.3,-1.2,29.09,NNW,331,8.3,8.3,35,0.00,,,0.00,VWS V14.01,2013-03-06 09:40:00,
2013-03-06 03:45:00,22.1,-0.8,29.09,NW,306,8.7,8.7,36,0.00,,,0.00,VWS V14.01,2013-03-06 09:45:00,
2013-03-06 03:50:00,22.3,-0.6,29.09,NW,304,7.6,7.6,36,0.00,,,0.00,VWS V14.01,2013-03-06 09:50:00,
2013-03-06 03:55:00,22.3,-0.6,29.09,NW,310,7.6,7.6,36,0.00,,,0.00,VWS V14.01,2013-03-06 09:55:00,
2013-03-06 04:00:00,22.3,-0.6,29.09,NW,324,8.1,8.1,36,0.00,,,0.00,VWS V14.01,2013-03-06 10:00:00,
2013-03-06 04:05:00,22.3,-0.6,29.09,NNW,328,6.3,6.7,36,0.00,,,0.00,VWS V14.01,2013-03-06 10:05:00,
2013-03-06 04:10:00,22.3,-0.6,29.09,NNW,339,5.8,5.8,36,0.00,,,0.00,VWS V14.01,2013-03-06 10:10:00,
2013-03-06 04:15:00,22.3,-0.6,29.09,NNW,331,4.0,5.4,36,0.00,,,0.00,VWS V14.01,2013-03-06 10:15:00,
2013-03-06 04:20:00,22.5,-0.4,29.09,NNW,339,4.9,5.8,36,0.00,,,0.00,VWS V14.01,2013-03-06 10:20:00,
2013-03-06 04:25:00,22.5,-0.4,29.09,NNW,348,2.7,4.9,36,0.00,,,0.00,VWS V14.01,2013-03-06 10:25:00,
2013-03-06 04:30:00,22.5,-0.4,29.09,NNW,332,6.3,6.3,36,0.00,,,0.00,VWS V14.01,2013-03-06 10:30:00,
2013-03-06 04:35:00,22.5,-0.4,29.09,NNW,344,4.9,4.9,36,0.00,,,0.00,VWS V14.01,2013-03-06 10:35:00,
2013-03-06 04:40:00,22.3,-0.6,29.09,North,357,6.7,7.6,36,0.00,,,0.00,VWS V14.01,2013-03-06 10:40:00,
2013-03-06 04:45:00,22.3,-0.6,29.09,NNW,341,4.0,4.0,36,0.00,,,0.00,VWS V14.01,2013-03-06 10:45:00,
2013-03-06 04:50:00,22.3,-0.6,29.09,North,353,5.8,6.3,36,0.00,,,0.00,VWS V14.01,2013-03-06 10:50:00,
2013-03-06 04:55:00,22.3,-0.6,29.09,North,0,4.9,6.7,36,0.00,,,0.00,VWS V14.01,2013-03-06 10:55:00,
2013-03-06 05:00:00,22.1,-0.8,29.09,North,353,6.3,6.3,36,0.00,,,0.00,VWS V14.01,2013-03-06 11:00:00,
2013-03-06 05:05:00,22.1,-0.8,29.09,NNW,344,6.3,6.3,36,0.00,,,0.00,VWS V14.01,2013-03-06 11:05:00,
2013-03-06 05:10:00,22.1,-0.8,29.09,North,357,5.4,5.4,36,0.00,,,0.00,VWS V14.01,2013-03-06 11:10:00,
2013-03-06 05:15:00,22.1,-0.8,29.09,North,3,5.4,5.8,36,0.00,,,0.00,VWS V14.01,2013-03-06 11:15:00,
2013-03-06 05:20:00,22.1,-0.8,29.09,North,353,7.6,7.6,36,0.00,,,0.00,VWS V14.01,2013-03-06 11:20:00,
2013-03-06 05:25:00,21.9,-0.9,29.09,North,0,4.0,5.4,36,0.00,,,0.00,VWS V14.01,2013-03-06 11:25:00,
2013-03-06 05:30:00,21.9,-0.9,29.09,NNW,329,6.7,7.6,36,0.00,,,0.00,VWS V14.01,2013-03-06 11:30:00,
2013-03-06 05:35:00,21.9,-0.9,29.09,NNW,334,4.0,5.4,36,0.00,,,0.00,VWS V14.01,2013-03-06 11:35:00,
2013-03-06 05:40:00,21.9,-0.9,29.09,NNW,335,4.0,4.0,36,0.00,,,0.00,VWS V14.01,2013-03-06 11:40:00,
2013-03-06 05:45:00,21.9,-0.9,29.09,NNE,16,5.8,5.8,36,0.00,,,0.00,VWS V14.01,2013-03-06 11:45:00,
2013-03-06 05:50:00,22.1,-0.8,29.09,NNE,15,5.4,5.8,36,0.00,,,0.00,VWS V14.01,2013-03-06 11:50:00,
2013-03-06 05:55:00,22.1,-0.8,29.12,North,7,6.3,6.3,36,0.00,,,0.00,VWS V14.01,2013-03-06 11:55:00,
2013-03-06 06:00:00,21.9,-0.9,29.12,North,0,5.4,5.4,36,0.00,,,0.00,VWS V14.01,2013-03-06 12:00:00,
2013-03-06 06:05:00,21.9,-0.9,29.12,NNW,342,4.9,4.9,36,0.00,,,0.00,VWS V14.01,2013-03-06 12:05:00,
2013-03-06 06:10:00,21.7,-1.1,29.12,NNW,341,5.8,5.8,36,0.00,,,0.00,VWS V14.01,2013-03-06 12:10:00,
2013-03-06 06:15:00,21.7,-1.1,29.12,NNW,342,5.8,5.8,36,0.00,,,0.00,VWS V14.01,2013-03-06 12:15:00,
2013-03-06 06:20:00,21.7,-1.1,29.12,NNW,336,5.8,5.8,36,0.00,,,0.00,VWS V14.01,2013-03-06 12:20:00,
2013-03-06 06:25:00,21.7,-1.1,29.12,NNW,329,4.9,4.9,36,0.00,,,0.00,VWS V14.01,2013-03-06 12:25:00,
2013-03-06 06:30:00,21.7,-1.1,29.12,NNW,329,2.7,3.6,36,0.00,,,0.00,VWS V14.01,2013-03-06 12:30:00,
2013-03-06 06:35:00,21.7,-1.1,29.12,NNW,329,5.8,7.6,36,0.00,,,0.00,VWS V14.01,2013-03-06 12:35:00,
2013-03-06 06:40:00,21.6,-1.2,29.09,NNW,329,4.9,5.8,36,0.00,,,0.00,VWS V14.01,2013-03-06 12:40:00,
2013-03-06 06:45:00,21.4,-1.4,29.09,NNW,346,5.8,5.8,36,0.00,,,0.00,VWS V14.01,2013-03-06 12:45:00,
2013-03-06 06:50:00,21.4,-1.4,29.09,NW,320,6.3,7.6,36,0.00,,,0.00,VWS V14.01,2013-03-06 12:50:00,
2013-03-06 06:55:00,21.4,-0.8,29.09,NNW,344,2.7,4.0,37,0.00,,,0.00,VWS V14.01,2013-03-06 12:55:00,
2013-03-06 07:00:00,21.4,-0.8,29.09,NW,323,6.3,6.3,37,0.00,,,0.00,VWS V14.01,2013-03-06 13:00:00,
2013-03-06 07:05:00,21.4,-0.8,29.09,NNW,329,5.8,5.8,37,0.00,,,0.00,VWS V14.01,2013-03-06 13:05:00,
2013-03-06 07:10:00,21.6,-0.7,29.09,NNW,328,4.0,5.4,37,0.00,,,0.00,VWS V14.01,2013-03-06 13:10:00,
2013-03-06 07:15:00,21.6,-0.7,29.09,NNW,328,4.9,4.9,37,0.00,,,0.00,VWS V14.01,2013-03-06 13:15:00,
2013-03-06 07:20:00,21.6,-0.7,29.09,NNW,329,4.0,4.0,37,0.00,,,0.00,VWS V14.01,2013-03-06 13:20:00,
2013-03-06 07:25:00,21.6,-1.2,29.09,NNW,329,3.6,4.0,36,0.00,,,0.00,VWS V14.01,2013-03-06 13:25:00,
2013-03-06 07:30:00,21.6,-0.7,29.09,NNW,328,2.7,4.0,37,0.00,,,0.00,VWS V14.01,2013-03-06 13:30:00,
2013-03-06 07:35:00,21.6,-1.2,29.09,NNW,335,3.1,3.6,36,0.00,,,0.00,VWS V14.01,2013-03-06 13:35:00,
2013-03-06 07:40:00,21.4,-1.4,29.09,North,9,2.7,3.1,36,0.00,,,0.00,VWS V14.01,2013-03-06 13:40:00,
2013-03-06 07:45:00,21.6,-1.2,29.09,North,9,0.0,0.0,36,0.00,,,0.00,VWS V14.01,2013-03-06 13:45:00,
2013-03-06 07:50:00,21.6,-1.2,29.09,North,9,3.1,4.0,36,0.00,,,0.00,VWS V14.01,2013-03-06 13:50:00,
2013-03-06 07:55:00,21.7,-1.1,29.09,North,9,2.2,2.7,36,0.00,,,0.00,VWS V14.01,2013-03-06 13:55:00,
2013-03-06 08:00:00,21.9,-0.3,29.09,North,10,5.4,5.4,37,0.00,,,0.00,VWS V14.01,2013-03-06 14:00:00,
2013-03-06 08:05:00,22.1,-0.2,29.09,North,11,2.7,3.6,37,0.00,,,0.00,VWS V14.01,2013-03-06 14:05:00,
2013-03-06 08:10:00,22.5,0.1,29.09,North,11,3.1,3.1,37,0.00,,,0.00,VWS V14.01,2013-03-06 14:10:00,
2013-03-06 08:15:00,22.5,-0.4,29.09,North,10,2.7,2.7,36,0.00,,,0.00,VWS V14.01,2013-03-06 14:15:00,
2013-03-06 08:20:00,22.3,-0.6,29.09,NNE,12,3.6,5.8,36,0.00,,,0.00,VWS V14.01,2013-03-06 14:20:00,
2013-03-06 08:25:00,22.3,-0.6,29.09,North,9,3.6,3.6,36,0.00,,,0.00,VWS V14.01,2013-03-06 14:25:00,
2013-03-06 08:30:00,22.3,-0.6,29.09,NNE,13,4.9,4.9,36,0.00,,,0.00,VWS V14.01,2013-03-06 14:30:00,
2013-03-06 08:35:00,22.3,-0.6,29.09,NNE,13,4.0,4.0,36,0.00,,,0.00,VWS V14.01,2013-03-06 14:35:00,
2013-03-06 08:40:00,22.5,-0.4,29.09,North,9,3.6,5.4,36,0.00,,,0.00,VWS V14.01,2013-03-06 14:40:00,
2013-03-06 08:45:00,22.8,-0.1,29.09,North,9,4.0,4.0,36,0.00,,,0.00,VWS V14.01,2013-03-06 14:45:00,
2013-03-06 08:50:00,23.0,-0.6,29.09,North,9,3.1,3.1,35,0.00,,,0.00,VWS V14.01,2013-03-06 14:50:00,
2013-03-06 08:55:00,23.2,-0.4,29.09,North,6,0.0,0.0,35,0.00,,,0.00,VWS V14.01,2013-03-06 14:55:00,
2013-03-06 09:00:00,23.7,0.1,29.09,NNE,27,6.3,6.3,35,0.00,,,0.00,VWS V14.01,2013-03-06 15:00:00,
2013-03-06 09:05:00,24.4,0.7,29.09,NNE,17,4.9,4.9,35,0.00,,,0.00,VWS V14.01,2013-03-06 15:05:00,
2013-03-06 09:10:00,24.8,-0.2,29.09,NNE,14,4.0,4.0,33,0.00,,,0.00,VWS V14.01,2013-03-06 15:10:00,
2013-03-06 09:15:00,25.5,0.4,29.09,NNE,14,0.0,0.0,33,0.00,,,0.00,VWS V14.01,2013-03-06 15:15:00,
2013-03-06 09:20:00,26.1,0.9,29.09,NNE,17,3.1,4.0,33,0.00,,,0.00,VWS V14.01,2013-03-06 15:20:00,
2013-03-06 09:25:00,27.0,1.0,29.09,NNE,19,4.9,4.9,32,0.00,,,0.00,VWS V14.01,2013-03-06 15:25:00,
2013-03-06 09:30:00,27.5,1.5,29.09,NNE,22,6.7,6.7,32,0.00,,,0.00,VWS V14.01,2013-03-06 15:30:00,
2013-03-06 09:35:00,27.9,1.2,29.09,NNE,22,3.1,4.0,31,0.00,,,0.00,VWS V14.01,2013-03-06 15:35:00,
2013-03-06 09:40:00,28.6,1.1,29.09,NNE,19,3.6,3.6,30,0.00,,,0.00,VWS V14.01,2013-03-06 15:40:00,
2013-03-06 09:45:00,28.6,1.1,29.09,NNE,19,2.7,2.7,30,0.00,,,0.00,VWS V14.01,2013-03-06 15:45:00,
2013-03-06 09:50:00,29.3,1.7,29.09,NNE,29,3.6,4.9,30,0.00,,,0.00,VWS V14.01,2013-03-06 15:50:00,
2013-03-06 09:55:00,30.9,3.1,29.09,NE,39,3.6,4.5,30,0.00,,,0.00,VWS V14.01,2013-03-06 15:55:00,
2013-03-06 10:00:00,31.5,2.1,29.09,NE,40,5.8,5.8,28,0.00,,,0.00,VWS V14.01,2013-03-06 16:00:00,
2013-03-06 10:05:00,31.5,2.1,29.09,NE,45,3.6,4.0,28,0.00,,,0.00,VWS V14.01,2013-03-06 16:05:00,
2013-03-06 10:10:00,32.2,0.3,29.09,NE,46,0.0,0.0,25,0.00,,,0.00,VWS V14.01,2013-03-06 16:10:00,
2013-03-06 10:15:00,32.4,0.5,29.09,NE,49,3.1,3.1,25,0.00,,,0.00,VWS V14.01,2013-03-06 16:15:00,
2013-03-06 10:20:00,33.1,3.5,29.09,NE,50,4.9,4.9,28,0.00,,,0.00,VWS V14.01,2013-03-06 16:20:00,
2013-03-06 10:25:00,33.1,1.1,29.09,NE,41,4.9,4.9,25,0.00,,,0.00,VWS V14.01,2013-03-06 16:25:00,
2013-03-06 10:30:00,32.7,0.8,29.09,ENE,62,3.6,3.6,25,0.00,,,0.00,VWS V14.01,2013-03-06 16:30:00,
2013-03-06 10:35:00,34.0,1.9,29.09,ENE,73,0.0,4.9,25,0.00,,,0.00,VWS V14.01,2013-03-06 16:35:00,
2013-03-06 10:40:00,34.7,2.5,29.09,East,87,5.4,5.4,25,0.00,,,0.00,VWS V14.01,2013-03-06 16:40:00,
2013-03-06 10:45:00,35.4,3.1,29.09,East,100,4.0,5.4,25,0.00,,,0.00,VWS V14.01,2013-03-06 16:45:00,
2013-03-06 10:50:00,36.3,3.0,29.09,ESE,103,6.3,6.3,24,0.00,,,0.00,VWS V14.01,2013-03-06 16:50:00,
2013-03-06 10:55:00,36.5,3.2,29.09,ESE,105,6.3,6.3,24,0.00,,,0.00,VWS V14.01,2013-03-06 16:55:00,
2013-03-06 11:00:00,36.9,3.5,29.09,ESE,108,2.2,2.7,24,0.00,,,0.00,VWS V14.01,2013-03-06 17:00:00,
2013-03-06 11:05:00,36.1,1.0,29.09,ESE,107,0.0,0.0,22,0.00,,,0.00,VWS V14.01,2013-03-06 17:05:00,
2013-03-06 11:10:00,35.1,0.1,29.09,ESE,108,4.0,4.0,22,0.00,,,0.00,VWS V14.01,2013-03-06 17:10:00,
2013-03-06 11:15:00,35.4,0.4,29.09,ESE,108,4.9,5.8,22,0.00,,,0.00,VWS V14.01,2013-03-06 17:15:00,
2013-03-06 11:20:00,36.9,3.5,29.09,ESE,118,3.6,4.9,24,0.00,,,0.00,VWS V14.01,2013-03-06 17:20:00,
2013-03-06 11:25:00,37.9,1.5,29.09,ESE,121,2.7,4.0,21,0.00,,,0.00,VWS V14.01,2013-03-06 17:25:00,
2013-03-06 11:30:00,37.6,1.2,29.09,ESE,120,3.1,5.4,21,0.00,,,0.00,VWS V14.01,2013-03-06 17:30:00,
2013-03-06 11:35:00,37.8,1.4,29.09,East,99,2.2,2.7,21,0.00,,,0.00,VWS V14.01,2013-03-06 17:35:00,
2013-03-06 11:40:00,37.6,1.2,29.09,ESE,106,4.9,4.9,21,0.00,,,0.00,VWS V14.01,2013-03-06 17:40:00,
2013-03-06 11:45:00,38.7,2.1,29.09,SE,128,3.1,3.1,21,0.00,,,0.00,VWS V14.01,2013-03-06 17:45:00,
2013-03-06 11:50:00,38.5,2.0,29.09,SE,142,0.0,0.0,21,0.00,,,0.00,VWS V14.01,2013-03-06 17:50:00,
2013-03-06 11:55:00,39.0,2.4,29.06,SE,129,5.8,6.7,21,0.00,,,0.00,VWS V14.01,2013-03-06 17:55:00,
2013-03-06 12:16:00,39.7,3.0,29.06,South,185,7.6,7.6,21,0.00,,,0.00,VWS V14.01,2013-03-06 18:16:00,
2013-03-06 12:21:00,41.2,4.2,29.06,SSW,194,5.4,5.8,21,0.00,,,0.00,VWS V14.01,2013-03-06 18:21:00,
2013-03-06 12:26:00,40.8,3.9,29.06,SSW,199,0.0,3.1,21,0.00,,,0.00,VWS V14.01,2013-03-06 18:26:00,
2013-03-06 12:31:00,41.0,4.1,29.06,SSW,192,6.3,6.3,21,0.00,,,0.00,VWS V14.01,2013-03-06 18:31:00,
2013-03-06 12:36:00,40.5,3.6,29.06,SSW,211,3.1,5.4,21,0.00,,,0.00,VWS V14.01,2013-03-06 18:36:00,
2013-03-06 12:41:00,40.5,3.6,29.06,SE,140,2.7,3.1,21,0.00,,,0.00,VWS V14.01,2013-03-06 18:41:00,
2013-03-06 12:46:00,40.5,3.6,29.06,ESE,122,2.2,4.0,21,0.00,,,0.00,VWS V14.01,2013-03-06 18:46:00,
2013-03-06 12:51:00,40.8,3.9,29.06,SE,135,6.3,6.7,21,0.00,,,0.00,VWS V14.01,2013-03-06 18:51:00,
2013-03-06 12:56:00,42.6,5.4,29.06,SE,139,2.7,6.3,21,0.00,,,0.00,VWS V14.01,2013-03-06 18:56:00,
2013-03-06 13:01:00,43.7,5.3,29.06,SSE,151,8.3,8.3,20,0.00,,,0.00,VWS V14.01,2013-03-06 19:01:00,
2013-03-06 13:06:00,44.1,5.6,29.06,ESE,123,4.9,5.4,20,0.00,,,0.00,VWS V14.01,2013-03-06 19:06:00,
2013-03-06 13:11:00,44.4,5.9,29.03,ESE,109,5.8,6.7,20,0.00,,,0.00,VWS V14.01,2013-03-06 19:11:00,
2013-03-06 13:16:00,44.6,6.0,29.03,ESE,119,7.6,8.3,20,0.00,,,0.00,VWS V14.01,2013-03-06 19:16:00,
2013-03-06 13:21:00,45.0,6.3,29.03,SE,126,4.0,4.9,20,0.00,,,0.00,VWS V14.01,2013-03-06 19:21:00,
2013-03-06 13:26:00,45.3,6.6,29.03,SE,144,2.7,4.0,20,0.00,,,0.00,VWS V14.01,2013-03-06 19:26:00,
2013-03-06 13:31:00,45.1,6.5,29.03,SE,133,7.6,7.6,20,0.00,,,0.00,VWS V14.01,2013-03-06 19:31:00,
2013-03-06 13:36:00,45.0,6.3,29.03,SSW,206,6.3,7.6,20,0.00,,,0.00,VWS V14.01,2013-03-06 19:36:00,
2013-03-06 13:41:00,44.8,6.2,29.03,South,190,2.2,3.1,20,0.00,,,0.00,VWS V14.01,2013-03-06 19:41:00,
2013-03-06 13:46:00,45.3,6.6,29.03,ESE,112,8.7,8.7,20,0.00,,,0.00,VWS V14.01,2013-03-06 19:46:00,
2013-03-06 13:51:00,46.2,7.4,29.03,ESE,102,5.4,5.4,20,0.00,,,0.00,VWS V14.01,2013-03-06 19:51:00,
2013-03-06 13:56:00,46.8,6.7,29.00,East,87,6.3,6.3,19,0.00,,,0.00,VWS V14.01,2013-03-06 19:56:00,
2013-03-06 14:01:00,47.1,7.0,29.00,ESE,106,0.0,4.0,19,0.00,,,0.00,VWS V14.01,2013-03-06 20:01:00,
2013-03-06 14:06:00,45.5,6.8,29.00,SE,134,9.6,9.6,20,0.00,,,0.00,VWS V14.01,2013-03-06 20:06:00,
2013-03-06 14:11:00,46.6,6.5,29.00,SE,124,3.1,3.6,19,0.00,,,0.00,VWS V14.01,2013-03-06 20:11:00,
2013-03-06 14:16:00,47.5,7.3,29.00,SE,138,5.8,8.1,19,0.00,,,0.00,VWS V14.01,2013-03-06 20:16:00,
2013-03-06 14:21:00,48.2,7.9,29.00,SE,132,10.1,11.0,19,0.00,,,0.00,VWS V14.01,2013-03-06 20:21:00,
2013-03-06 14:26:00,48.6,8.2,29.00,SE,138,5.8,5.8,19,0.00,,,0.00,VWS V14.01,2013-03-06 20:26:00,
2013-03-06 14:31:00,48.6,8.2,29.00,SE,132,4.0,8.7,19,0.00,,,0.00,VWS V14.01,2013-03-06 20:31:00,
2013-03-06 14:36:00,48.6,8.2,29.00,SE,135,4.0,8.7,19,0.00,,,0.00,VWS V14.01,2013-03-06 20:36:00,
2013-03-06 14:41:00,48.7,8.3,29.00,ESE,106,7.6,7.6,19,0.00,,,0.00,VWS V14.01,2013-03-06 20:41:00,
2013-03-06 14:46:00,48.7,8.3,29.00,SE,144,3.1,5.8,19,0.00,,,0.00,VWS V14.01,2013-03-06 20:46:00,
2013-03-06 14:51:00,48.7,8.3,29.00,SE,134,8.3,8.3,19,0.00,,,0.00,VWS V14.01,2013-03-06 20:51:00,
2013-03-06 14:56:00,48.9,8.5,28.97,East,98,5.8,5.8,19,0.00,,,0.00,VWS V14.01,2013-03-06 20:56:00,
2013-03-06 15:01:00,48.4,8.0,28.97,ESE,123,5.8,8.1,19,0.00,,,0.00,VWS V14.01,2013-03-06 21:01:00,
2013-03-06 15:06:00,48.4,8.0,28.97,South,173,5.4,8.7,19,0.00,,,0.00,VWS V14.01,2013-03-06 21:06:00,
2013-03-06 15:11:00,49.3,8.8,28.97,ESE,116,4.9,6.3,19,0.00,,,0.00,VWS V14.01,2013-03-06 21:11:00,
2013-03-06 15:16:00,49.5,8.9,28.97,SE,133,5.4,10.1,19,0.00,,,0.00,VWS V14.01,2013-03-06 21:16:00,
2013-03-06 15:21:00,49.6,9.1,28.97,SSE,155,8.7,9.6,19,0.00,,,0.00,VWS V14.01,2013-03-06 21:21:00,
2013-03-06 15:26:00,49.3,8.8,28.97,SE,124,5.4,8.1,19,0.00,,,0.00,VWS V14.01,2013-03-06 21:26:00,
2013-03-06 15:31:00,49.1,8.6,28.97,ESE,109,8.7,8.7,19,0.00,,,0.00,VWS V14.01,2013-03-06 21:31:00,
2013-03-06 15:36:00,49.6,9.1,28.97,SSE,148,5.4,6.7,19,0.00,,,0.00,VWS V14.01,2013-03-06 21:36:00,
2013-03-06 15:41:00,49.8,9.2,28.97,SE,141,4.9,7.6,19,0.00,,,0.00,VWS V14.01,2013-03-06 21:41:00,
2013-03-06 15:46:00,49.6,9.1,28.97,SE,128,8.1,10.1,19,0.00,,,0.00,VWS V14.01,2013-03-06 21:46:00,
2013-03-06 15:51:00,49.1,8.6,28.97,SSE,157,5.8,6.3,19,0.00,,,0.00,VWS V14.01,2013-03-06 21:51:00,
2013-03-06 15:56:00,49.3,8.8,28.97,SE,140,11.0,11.0,19,0.00,,,0.00,VWS V14.01,2013-03-06 21:56:00,
2013-03-06 16:01:00,48.9,8.5,28.97,SE,124,8.3,11.0,19,0.00,,,0.00,VWS V14.01,2013-03-06 22:01:00,
2013-03-06 16:06:00,48.4,8.0,28.97,ESE,122,10.5,10.5,19,0.00,,,0.00,VWS V14.01,2013-03-06 22:06:00,
2013-03-06 16:11:00,48.4,8.0,28.97,SE,131,5.8,6.3,19,0.00,,,0.00,VWS V14.01,2013-03-06 22:11:00,
2013-03-06 16:16:00,48.4,8.0,28.97,SE,142,10.1,12.3,19,0.00,,,0.00,VWS V14.01,2013-03-06 22:16:00,
2013-03-06 16:21:00,48.2,7.9,28.97,ESE,117,8.3,8.7,19,0.00,,,0.00,VWS V14.01,2013-03-06 22:21:00,
2013-03-06 16:26:00,47.8,7.6,28.97,SE,135,7.6,10.1,19,0.00,,,0.00,VWS V14.01,2013-03-06 22:26:00,
2013-03-06 16:31:00,47.7,7.4,28.97,SE,140,5.8,8.7,19,0.00,,,0.00,VWS V14.01,2013-03-06 22:31:00,
2013-03-06 16:36:00,47.5,7.3,28.97,SE,136,7.6,8.3,19,0.00,,,0.00,VWS V14.01,2013-03-06 22:36:00,
2013-03-06 16:41:00,46.9,6.8,28.97,ESE,106,6.3,10.1,19,0.00,,,0.00,VWS V14.01,2013-03-06 22:41:00,
2013-03-06 16:46:00,46.6,6.5,28.97,ESE,119,11.0,11.0,19,0.00,,,0.00,VWS V14.01,2013-03-06 22:46:00,
2013-03-06 16:51:00,46.2,7.4,28.97,East,101,5.8,8.7,20,0.00,,,0.00,VWS V14.01,2013-03-06 22:51:00,
2013-03-06 16:56:00,45.5,6.8,28.94,ESE,113,7.6,10.1,20,0.00,,,0.00,VWS V14.01,2013-03-06 22:56:00,
2013-03-06 17:01:00,45.1,6.5,28.94,ESE,118,5.8,7.6,20,0.00,,,0.00,VWS V14.01,2013-03-06 23:01:00,
2013-03-06 17:06:00,44.8,6.2,28.94,ESE,122,9.2,9.2,20,0.00,,,0.00,VWS V14.01,2013-03-06 23:06:00,
2013-03-06 17:11:00,44.2,5.7,28.94,ESE,102,7.6,10.1,20,0.00,,,0.00,VWS V14.01,2013-03-06 23:11:00,
2013-03-06 17:16:00,43.5,5.1,28.94,SE,131,8.1,9.2,20,0.00,,,0.00,VWS V14.01,2013-03-06 23:16:00,
2013-03-06 17:21:00,43.2,4.8,28.94,ESE,118,12.8,12.8,20,0.00,,,0.00,VWS V14.01,2013-03-06 23:21:00,
2013-03-06 17:26:00,42.4,5.3,28.94,ESE,111,10.1,12.8,21,0.00,,,0.00,VWS V14.01,2013-03-06 23:26:00,
2013-03-06 17:31:00,41.5,4.5,28.94,ESE,113,7.6,8.1,21,0.00,,,0.00,VWS V14.01,2013-03-06 23:31:00,
2013-03-06 17:36:00,40.6,3.8,28.94,East,100,9.6,11.0,21,0.00,,,0.00,VWS V14.01,2013-03-06 23:36:00,
2013-03-06 17:41:00,39.9,3.2,28.94,ESE,108,8.7,8.7,21,0.00,,,0.00,VWS V14.01,2013-03-06 23:41:00,
2013-03-06 17:46:00,38.8,2.3,28.94,East,93,10.1,10.1,21,0.00,,,0.00,VWS V14.01,2013-03-06 23:46:00,
2013-03-06 17:51:00,38.1,1.6,28.94,East,89,7.6,7.6,21,0.00,,,0.00,VWS V14.01,2013-03-06 23:51:00,
2013-03-06 17:56:00,37.2,1.9,28.94,ESE,102,6.3,6.3,22,0.00,,,0.00,VWS V14.01,2013-03-06 23:56:00,
2013-03-06 18:01:00,36.7,1.4,28.94,ESE,102,6.3,7.6,22,0.00,,,0.00,VWS V14.01,2013-03-07 00:01:00,
2013-03-06 18:06:00,36.0,0.8,28.94,East,92,6.7,6.7,22,0.00,,,0.00,VWS V14.01,2013-03-07 00:06:00,
2013-03-06 18:11:00,35.4,0.4,28.94,ESE,106,8.3,8.3,22,0.00,,,0.00,VWS V14.01,2013-03-07 00:11:00,
2013-03-06 18:16:00,34.9,-0.1,28.94,ESE,103,7.6,8.3,22,0.00,,,0.00,VWS V14.01,2013-03-07 00:16:00,
2013-03-06 18:21:00,34.3,-0.6,28.94,ESE,112,7.6,8.7,22,0.00,,,0.00,VWS V14.01,2013-03-07 00:21:00,
2013-03-06 18:26:00,34.0,-0.9,28.94,ESE,105,8.3,9.2,22,0.00,,,0.00,VWS V14.01,2013-03-07 00:26:00,
2013-03-06 18:31:00,33.8,-1.0,28.94,ESE,103,7.6,8.3,22,0.00,,,0.00,VWS V14.01,2013-03-07 00:31:00,
2013-03-06 18:36:00,33.4,-0.4,28.94,ESE,105,9.6,9.6,23,0.00,,,0.00,VWS V14.01,2013-03-07 00:36:00,
2013-03-06 18:41:00,33.3,-0.5,28.94,East,98,8.1,8.1,23,0.00,,,0.00,VWS V14.01,2013-03-07 00:41:00,
2013-03-06 18:46:00,32.9,-0.8,28.94,ESE,103,5.4,7.2,23,0.00,,,0.00,VWS V14.01,2013-03-07 00:46:00,
2013-03-06 18:51:00,32.7,-1.0,28.94,East,90,7.6,8.3,23,0.00,,,0.00,VWS V14.01,2013-03-07 00:51:00,
2013-03-06 18:56:00,32.5,-1.1,28.94,East,91,5.8,6.3,23,0.00,,,0.00,VWS V14.01,2013-03-07 00:56:00,
2013-03-06 19:01:00,32.2,-1.4,28.94,East,95,5.8,6.3,23,0.00,,,0.00,VWS V14.01,2013-03-07 01:01:00,
2013-03-06 19:06:00,32.2,-1.4,28.94,East,96,7.6,7.6,23,0.00,,,0.00,VWS V14.01,2013-03-07 01:06:00,
2013-03-06 19:11:00,31.8,-1.8,28.91,East,101,3.1,8.1,23,0.00,,,0.00,VWS V14.01,2013-03-07 01:11:00,
2013-03-06 19:16:00,31.6,-1.9,28.91,East,93,5.8,6.7,23,0.00,,,0.00,VWS V14.01,2013-03-07 01:16:00,
2013-03-06 19:21:00,31.5,-0.3,28.91,East,99,6.3,7.6,25,0.00,,,0.00,VWS V14.01,2013-03-07 01:21:00,
2013-03-06 19:26:00,31.1,-0.6,28.94,East,99,5.4,5.4,25,0.00,,,0.00,VWS V14.01,2013-03-07 01:26:00,
2013-03-06 19:31:00,30.9,-0.8,28.94,East,101,6.3,6.3,25,0.00,,,0.00,VWS V14.01,2013-03-07 01:31:00,
2013-03-06 19:36:00,30.6,-1.1,28.94,East,99,5.8,5.8,25,0.00,,,0.00,VWS V14.01,2013-03-07 01:36:00,
2013-03-06 19:41:00,30.6,-1.1,28.91,East,96,5.4,5.4,25,0.00,,,0.00,VWS V14.01,2013-03-07 01:41:00,
2013-03-06 19:46:00,30.6,-1.1,28.91,East,96,6.3,6.3,25,0.00,,,0.00,VWS V14.01,2013-03-07 01:46:00,
2013-03-06 19:51:00,30.2,-1.4,28.91,East,95,5.4,6.3,25,0.00,,,0.00,VWS V14.01,2013-03-07 01:51:00,
2013-03-06 19:56:00,30.0,-1.5,28.94,East,91,5.4,6.3,25,0.00,,,0.00,VWS V14.01,2013-03-07 01:56:00,
2013-03-06 20:01:00,29.8,-1.7,28.94,East,95,6.3,6.3,25,0.00,,,0.00,VWS V14.01,2013-03-07 02:01:00,
2013-03-06 20:06:00,29.8,0.7,28.94,East,96,6.7,7.6,28,0.00,,,0.00,VWS V14.01,2013-03-07 02:06:00,
2013-03-06 20:11:00,29.8,0.7,28.94,ESE,102,5.8,7.6,28,0.00,,,0.00,VWS V14.01,2013-03-07 02:11:00,
2013-03-06 20:16:00,29.8,0.7,28.94,ESE,109,8.3,8.3,28,0.00,,,0.00,VWS V14.01,2013-03-07 02:16:00,
2013-03-06 20:21:00,29.7,0.6,28.94,ESE,108,8.1,11.0,28,0.00,,,0.00,VWS V14.01,2013-03-07 02:21:00,
2013-03-06 20:26:00,29.7,2.0,28.91,ESE,112,10.1,10.1,30,0.00,,,0.00,VWS V14.01,2013-03-07 02:26:00,
2013-03-06 20:31:00,29.7,2.0,28.91,ESE,113,11.4,11.4,30,0.00,,,0.00,VWS V14.01,2013-03-07 02:31:00,
2013-03-06 20:36:00,29.7,2.7,28.91,ESE,108,8.3,10.5,31,0.00,,,0.00,VWS V14.01,2013-03-07 02:36:00,
2013-03-06 20:41:00,29.7,2.7,28.91,East,101,13.2,14.1,31,0.00,,,0.00,VWS V14.01,2013-03-07 02:41:00,
2013-03-06 20:46:00,29.5,2.6,28.91,ESE,104,12.8,12.8,31,0.00,,,0.00,VWS V14.01,2013-03-07 02:46:00,
2013-03-06 20:51:00,29.7,2.7,28.91,East,101,8.7,11.0,31,0.00,,,0.00,VWS V14.01,2013-03-07 02:51:00,
2013-03-06 20:56:00,29.5,3.3,28.91,ESE,106,11.0,11.0,32,0.00,,,0.00,VWS V14.01,2013-03-07 02:56:00,
2013-03-06 21:01:00,29.3,3.1,28.91,ESE,106,8.1,8.7,32,0.00,,,0.00,VWS V14.01,2013-03-07 03:01:00,
2013-03-06 21:06:00,29.1,3.0,28.91,ESE,107,7.2,12.3,32,0.00,,,0.00,VWS V14.01,2013-03-07 03:06:00,
2013-03-06 21:11:00,29.1,3.0,28.91,ESE,102,10.1,10.1,32,0.00,,,0.00,VWS V14.01,2013-03-07 03:11:00,
2013-03-06 21:16:00,28.9,2.8,28.91,ESE,107,11.0,11.0,32,0.00,,,0.00,VWS V14.01,2013-03-07 03:16:00,
2013-03-06 21:21:00,28.8,2.6,28.91,ESE,119,8.1,8.3,32,0.00,,,0.00,VWS V14.01,2013-03-07 03:21:00,
2013-03-06 21:26:00,28.6,2.5,28.91,East,101,13.2,13.2,32,0.00,,,0.00,VWS V14.01,2013-03-07 03:26:00,
2013-03-06 21:31:00,28.6,2.5,28.91,ESE,111,7.6,10.5,32,0.00,,,0.00,VWS V14.01,2013-03-07 03:31:00,
2013-03-06 21:36:00,28.4,3.0,28.91,ESE,120,7.6,10.5,33,0.00,,,0.00,VWS V14.01,2013-03-07 03:36:00,
2013-03-06 21:41:00,28.2,2.8,28.91,ESE,111,10.1,11.0,33,0.00,,,0.00,VWS V14.01,2013-03-07 03:41:00,
2013-03-06 21:46:00,28.0,2.7,28.91,SE,124,8.7,10.5,33,0.00,,,0.00,VWS V14.01,2013-03-07 03:46:00,
2013-03-06 21:51:00,27.9,2.5,28.91,ESE,122,7.6,8.7,33,0.00,,,0.00,VWS V14.01,2013-03-07 03:51:00,
2013-03-06 21:56:00,27.9,2.5,28.91,ESE,116,7.6,8.1,33,0.00,,,0.00,VWS V14.01,2013-03-07 03:56:00,
2013-03-06 22:01:00,27.7,2.3,28.91,ESE,117,6.3,8.1,33,0.00,,,0.00,VWS V14.01,2013-03-07 04:01:00,
2013-03-06 22:06:00,27.5,2.2,28.91,ESE,106,8.3,10.5,33,0.00,,,0.00,VWS V14.01,2013-03-07 04:06:00,
2013-03-06 22:11:00,27.3,2.0,28.91,ESE,104,8.7,10.5,33,0.00,,,0.00,VWS V14.01,2013-03-07 04:11:00,
2013-03-06 22:16:00,27.1,2.5,28.91,ESE,104,8.1,9.2,34,0.00,,,0.00,VWS V14.01,2013-03-07 04:16:00,
2013-03-06 22:21:00,27.0,2.3,28.91,ESE,113,9.6,11.4,34,0.00,,,0.00,VWS V14.01,2013-03-07 04:21:00,
2013-03-06 22:26:00,27.0,2.3,28.91,ESE,111,8.7,10.1,34,0.00,,,0.00,VWS V14.01,2013-03-07 04:26:00,
2013-03-06 22:31:00,27.0,2.3,28.91,ESE,102,4.9,10.1,34,0.00,,,0.00,VWS V14.01,2013-03-07 04:31:00,
2013-03-06 22:36:00,27.0,2.3,28.91,ESE,103,5.8,7.6,34,0.00,,,0.00,VWS V14.01,2013-03-07 04:36:00,
2013-03-06 22:41:00,26.8,2.8,28.94,ESE,108,8.3,8.7,35,0.00,,,0.00,VWS V14.01,2013-03-07 04:41:00,
2013-03-06 22:46:00,26.6,2.7,28.94,ESE,108,8.3,10.5,35,0.00,,,0.00,VWS V14.01,2013-03-07 04:46:00,
2013-03-06 22:51:00,26.6,2.7,28.94,ESE,102,5.8,6.3,35,0.00,,,0.00,VWS V14.01,2013-03-07 04:51:00,
2013-03-06 22:56:00,26.4,2.5,28.91,East,96,5.4,6.3,35,0.00,,,0.00,VWS V14.01,2013-03-07 04:56:00,
2013-03-06 23:00:00,26.2,2.9,28.91,East,100,5.4,7.6,36,0.00,,,0.00,VWS V14.01,2013-03-07 05:00:00,
2013-03-06 23:05:00,26.1,2.8,28.91,ESE,104,5.8,5.8,36,0.00,,,0.00,VWS V14.01,2013-03-07 05:05:00,
2013-03-06 23:10:00,26.1,2.8,28.94,ESE,110,6.3,6.3,36,0.00,,,0.00,VWS V14.01,2013-03-07 05:10:00,
2013-03-06 23:15:00,25.9,2.6,28.94,ESE,113,8.1,8.7,36,0.00,,,0.00,VWS V14.01,2013-03-07 05:15:00,
2013-03-06 23:20:00,25.7,2.5,28.94,ESE,115,7.6,8.1,36,0.00,,,0.00,VWS V14.01,2013-03-07 05:20:00,
2013-03-06 23:25:00,25.7,2.5,28.94,ESE,108,8.3,8.3,36,0.00,,,0.00,VWS V14.01,2013-03-07 05:25:00,
2013-03-06 23:30:00,25.5,2.3,28.94,ESE,107,7.6,8.1,36,0.00,,,0.00,VWS V14.01,2013-03-07 05:30:00,
2013-03-06 23:35:00,25.3,2.1,28.94,ESE,106,6.3,8.3,36,0.00,,,0.00,VWS V14.01,2013-03-07 05:35:00,
2013-03-06 23:40:00,25.3,2.7,28.94,ESE,107,5.4,8.1,37,0.00,,,0.00,VWS V14.01,2013-03-07 05:40:00,
2013-03-06 23:45:00,25.2,2.6,28.94,ESE,106,8.3,8.3,37,0.00,,,0.00,VWS V14.01,2013-03-07 05:45:00,
2013-03-06 23:50:00,25.2,2.6,28.94,ESE,106,8.3,8.3,37,0.00,,,0.00,VWS V14.01,2013-03-07 05:50:00,
2013-03-06 23:55:00,25.2,2.6,28.94,ESE,105,4.9,7.6,37,0.00,,,0.00,VWS V14.01,2013-03-07 05:55:00,